<?xml version="1.0" encoding="utf-8"?>
<gpx xmlns:xsi="http://www.w3.org/2001/XMLSchema-instance" xmlns:xsd="http://www.w3.org/2001/XMLSchema" version="1.1" creator="Shapelink.com" xmlns="http://www.topografix.com/GPX/1/1" xmlns:gpxtpx="http://www.garmin.com/xmlschemas/TrackPointExtension/v1">
  <metadata>
    <name>Löpning 3.01 km, 2021-04-01</name>
    <desc></desc>
    <author><name>christer nilsson</name></author> 
    <time>1970-01-01T01:00:00Z</time>
  </metadata>
  <trk>
    <name>Löpning 3.01 km, 2021-04-01</name>
    <trkseg>
      <trkpt lat="59.279796" lon="18.03432">
        <ele>31.2857</ele>
        <time>1970-01-01T01:00:00Z</time>
      </trkpt>
      <trkpt lat="59.279713" lon="18.034408">
        <ele>31.25</ele>
        <time>1970-01-01T01:00:00Z</time>
      </trkpt>
      <trkpt lat="59.279631" lon="18.034308">
        <ele>31.1111</ele>
        <time>1970-01-01T01:00:00Z</time>
      </trkpt>
      <trkpt lat="59.279571" lon="18.034164">
        <ele>31</ele>
        <time>1970-01-01T01:00:00Z</time>
      </trkpt>
      <trkpt lat="59.279508" lon="18.034021">
        <ele>30.9091</ele>
        <time>1970-01-01T01:00:00Z</time>
      </trkpt>
      <trkpt lat="59.279442" lon="18.03389">
        <ele>30.8182</ele>
        <time>1970-01-01T01:00:00Z</time>
      </trkpt>
      <trkpt lat="59.279377" lon="18.033755">
        <ele>30.6364</ele>
        <time>1970-01-01T01:00:00Z</time>
      </trkpt>
      <trkpt lat="59.2793" lon="18.0336">
        <ele>30.4545</ele>
        <time>1970-01-01T01:00:00Z</time>
      </trkpt>
      <trkpt lat="59.279234" lon="18.033466">
        <ele>30.2727</ele>
        <time>1970-01-01T01:00:00Z</time>
      </trkpt>
      <trkpt lat="59.279169" lon="18.033304">
        <ele>29.9091</ele>
        <time>1970-01-01T01:00:00Z</time>
      </trkpt>
      <trkpt lat="59.279104" lon="18.033168">
        <ele>29.5455</ele>
        <time>1970-01-01T01:00:00Z</time>
      </trkpt>
      <trkpt lat="59.279035" lon="18.033036">
        <ele>29.1818</ele>
        <time>1970-01-01T01:00:00Z</time>
      </trkpt>
      <trkpt lat="59.278971" lon="18.032897">
        <ele>28.9091</ele>
        <time>1970-01-01T01:00:00Z</time>
      </trkpt>
      <trkpt lat="59.278904" lon="18.032757">
        <ele>28.6364</ele>
        <time>1970-01-01T01:00:00Z</time>
      </trkpt>
      <trkpt lat="59.278829" lon="18.032606">
        <ele>28.3636</ele>
        <time>1970-01-01T01:00:00Z</time>
      </trkpt>
      <trkpt lat="59.278767" lon="18.032468">
        <ele>28.0909</ele>
        <time>1970-01-01T01:00:00Z</time>
      </trkpt>
      <trkpt lat="59.278712" lon="18.032319">
        <ele>27.9091</ele>
        <time>1970-01-01T01:00:00Z</time>
      </trkpt>
      <trkpt lat="59.278649" lon="18.032137">
        <ele>27.7273</ele>
        <time>1970-01-01T01:00:00Z</time>
      </trkpt>
      <trkpt lat="59.278598" lon="18.031977">
        <ele>27.6364</ele>
        <time>1970-01-01T01:00:00Z</time>
      </trkpt>
      <trkpt lat="59.278548" lon="18.031821">
        <ele>27.4545</ele>
        <time>1970-01-01T01:00:00Z</time>
      </trkpt>
      <trkpt lat="59.278494" lon="18.031658">
        <ele>27.3636</ele>
        <time>1970-01-01T01:00:00Z</time>
      </trkpt>
      <trkpt lat="59.27844" lon="18.031462">
        <ele>27.2727</ele>
        <time>1970-01-01T01:00:00Z</time>
      </trkpt>
      <trkpt lat="59.278406" lon="18.031284">
        <ele>27.1818</ele>
        <time>1970-01-01T01:00:00Z</time>
      </trkpt>
      <trkpt lat="59.278361" lon="18.031105">
        <ele>27.0909</ele>
        <time>1970-01-01T01:00:00Z</time>
      </trkpt>
      <trkpt lat="59.278305" lon="18.030944">
        <ele>27.0909</ele>
        <time>1970-01-01T01:00:00Z</time>
      </trkpt>
      <trkpt lat="59.278263" lon="18.030779">
        <ele>27.0909</ele>
        <time>1970-01-01T01:00:00Z</time>
      </trkpt>
      <trkpt lat="59.278241" lon="18.0306">
        <ele>27.0909</ele>
        <time>1970-01-01T01:00:00Z</time>
      </trkpt>
      <trkpt lat="59.278234" lon="18.030401">
        <ele>27</ele>
        <time>1970-01-01T01:00:00Z</time>
      </trkpt>
      <trkpt lat="59.278234" lon="18.030204">
        <ele>26.9091</ele>
        <time>1970-01-01T01:00:00Z</time>
      </trkpt>
      <trkpt lat="59.278211" lon="18.029989">
        <ele>26.7273</ele>
        <time>1970-01-01T01:00:00Z</time>
      </trkpt>
      <trkpt lat="59.278225" lon="18.0298">
        <ele>26.6364</ele>
        <time>1970-01-01T01:00:00Z</time>
      </trkpt>
      <trkpt lat="59.27824" lon="18.029594">
        <ele>26.4545</ele>
        <time>1970-01-01T01:00:00Z</time>
      </trkpt>
      <trkpt lat="59.278229" lon="18.029382">
        <ele>26.1818</ele>
        <time>1970-01-01T01:00:00Z</time>
      </trkpt>
      <trkpt lat="59.278236" lon="18.029182">
        <ele>25.9091</ele>
        <time>1970-01-01T01:00:00Z</time>
      </trkpt>
      <trkpt lat="59.278222" lon="18.028975">
        <ele>25.6364</ele>
        <time>1970-01-01T01:00:00Z</time>
      </trkpt>
      <trkpt lat="59.278224" lon="18.028783">
        <ele>25.2727</ele>
        <time>1970-01-01T01:00:00Z</time>
      </trkpt>
      <trkpt lat="59.278239" lon="18.02857">
        <ele>24.9091</ele>
        <time>1970-01-01T01:00:00Z</time>
      </trkpt>
      <trkpt lat="59.278274" lon="18.028405">
        <ele>24.5455</ele>
        <time>1970-01-01T01:00:00Z</time>
      </trkpt>
      <trkpt lat="59.278336" lon="18.028267">
        <ele>24.3636</ele>
        <time>1970-01-01T01:00:00Z</time>
      </trkpt>
      <trkpt lat="59.278409" lon="18.028141">
        <ele>24.2727</ele>
        <time>1970-01-01T01:00:00Z</time>
      </trkpt>
      <trkpt lat="59.278472" lon="18.028012">
        <ele>24.1818</ele>
        <time>1970-01-01T01:00:00Z</time>
      </trkpt>
      <trkpt lat="59.278544" lon="18.027879">
        <ele>24.1818</ele>
        <time>1970-01-01T01:00:00Z</time>
      </trkpt>
      <trkpt lat="59.278609" lon="18.027737">
        <ele>24.1818</ele>
        <time>1970-01-01T01:00:00Z</time>
      </trkpt>
      <trkpt lat="59.278677" lon="18.027595">
        <ele>24.2727</ele>
        <time>1970-01-01T01:00:00Z</time>
      </trkpt>
      <trkpt lat="59.278744" lon="18.02746">
        <ele>24.2727</ele>
        <time>1970-01-01T01:00:00Z</time>
      </trkpt>
      <trkpt lat="59.278813" lon="18.027327">
        <ele>24.2727</ele>
        <time>1970-01-01T01:00:00Z</time>
      </trkpt>
      <trkpt lat="59.278874" lon="18.027186">
        <ele>24.2727</ele>
        <time>1970-01-01T01:00:00Z</time>
      </trkpt>
      <trkpt lat="59.278846" lon="18.026985">
        <ele>24.1818</ele>
        <time>1970-01-01T01:00:00Z</time>
      </trkpt>
      <trkpt lat="59.278773" lon="18.026877">
        <ele>24</ele>
        <time>1970-01-01T01:00:00Z</time>
      </trkpt>
      <trkpt lat="59.278686" lon="18.026806">
        <ele>23.8182</ele>
        <time>1970-01-01T01:00:00Z</time>
      </trkpt>
      <trkpt lat="59.278594" lon="18.026783">
        <ele>23.5455</ele>
        <time>1970-01-01T01:00:00Z</time>
      </trkpt>
      <trkpt lat="59.278488" lon="18.026755">
        <ele>23.3636</ele>
        <time>1970-01-01T01:00:00Z</time>
      </trkpt>
      <trkpt lat="59.278391" lon="18.02672">
        <ele>23.1818</ele>
        <time>1970-01-01T01:00:00Z</time>
      </trkpt>
      <trkpt lat="59.278292" lon="18.026679">
        <ele>23.2727</ele>
        <time>1970-01-01T01:00:00Z</time>
      </trkpt>
      <trkpt lat="59.278195" lon="18.026631">
        <ele>23.4545</ele>
        <time>1970-01-01T01:00:00Z</time>
      </trkpt>
      <trkpt lat="59.278092" lon="18.026594">
        <ele>23.8182</ele>
        <time>1970-01-01T01:00:00Z</time>
      </trkpt>
      <trkpt lat="59.277986" lon="18.026549">
        <ele>24.2727</ele>
        <time>1970-01-01T01:00:00Z</time>
      </trkpt>
      <trkpt lat="59.277898" lon="18.026504">
        <ele>24.9091</ele>
        <time>1970-01-01T01:00:00Z</time>
      </trkpt>
      <trkpt lat="59.277789" lon="18.026454">
        <ele>25.7273</ele>
        <time>1970-01-01T01:00:00Z</time>
      </trkpt>
      <trkpt lat="59.277682" lon="18.026398">
        <ele>26.6364</ele>
        <time>1970-01-01T01:00:00Z</time>
      </trkpt>
      <trkpt lat="59.277572" lon="18.026343">
        <ele>27.3636</ele>
        <time>1970-01-01T01:00:00Z</time>
      </trkpt>
      <trkpt lat="59.277483" lon="18.026302">
        <ele>28</ele>
        <time>1970-01-01T01:00:00Z</time>
      </trkpt>
      <trkpt lat="59.277398" lon="18.026233">
        <ele>28.5455</ele>
        <time>1970-01-01T01:00:00Z</time>
      </trkpt>
      <trkpt lat="59.277347" lon="18.026083">
        <ele>29.0909</ele>
        <time>1970-01-01T01:00:00Z</time>
      </trkpt>
      <trkpt lat="59.277384" lon="18.025918">
        <ele>29.5455</ele>
        <time>1970-01-01T01:00:00Z</time>
      </trkpt>
      <trkpt lat="59.277482" lon="18.025935">
        <ele>30</ele>
        <time>1970-01-01T01:00:00Z</time>
      </trkpt>
      <trkpt lat="59.277506" lon="18.026126">
        <ele>30.3636</ele>
        <time>1970-01-01T01:00:00Z</time>
      </trkpt>
      <trkpt lat="59.277454" lon="18.0263">
        <ele>30.7273</ele>
        <time>1970-01-01T01:00:00Z</time>
      </trkpt>
      <trkpt lat="59.277365" lon="18.026326">
        <ele>31</ele>
        <time>1970-01-01T01:00:00Z</time>
      </trkpt>
      <trkpt lat="59.277284" lon="18.026205">
        <ele>31.1818</ele>
        <time>1970-01-01T01:00:00Z</time>
      </trkpt>
      <trkpt lat="59.277222" lon="18.026075">
        <ele>31.3636</ele>
        <time>1970-01-01T01:00:00Z</time>
      </trkpt>
      <trkpt lat="59.277179" lon="18.02591">
        <ele>31.6364</ele>
        <time>1970-01-01T01:00:00Z</time>
      </trkpt>
      <trkpt lat="59.277142" lon="18.025746">
        <ele>32</ele>
        <time>1970-01-01T01:00:00Z</time>
      </trkpt>
      <trkpt lat="59.2771" lon="18.025586">
        <ele>32.2727</ele>
        <time>1970-01-01T01:00:00Z</time>
      </trkpt>
      <trkpt lat="59.277057" lon="18.025424">
        <ele>32.3636</ele>
        <time>1970-01-01T01:00:00Z</time>
      </trkpt>
      <trkpt lat="59.277013" lon="18.025265">
        <ele>32.2727</ele>
        <time>1970-01-01T01:00:00Z</time>
      </trkpt>
      <trkpt lat="59.276967" lon="18.025108">
        <ele>32</ele>
        <time>1970-01-01T01:00:00Z</time>
      </trkpt>
      <trkpt lat="59.276922" lon="18.024953">
        <ele>31.6364</ele>
        <time>1970-01-01T01:00:00Z</time>
      </trkpt>
      <trkpt lat="59.276879" lon="18.024791">
        <ele>31.0909</ele>
        <time>1970-01-01T01:00:00Z</time>
      </trkpt>
      <trkpt lat="59.276838" lon="18.024627">
        <ele>30.6364</ele>
        <time>1970-01-01T01:00:00Z</time>
      </trkpt>
      <trkpt lat="59.276787" lon="18.024436">
        <ele>30.2727</ele>
        <time>1970-01-01T01:00:00Z</time>
      </trkpt>
      <trkpt lat="59.276744" lon="18.024278">
        <ele>29.9091</ele>
        <time>1970-01-01T01:00:00Z</time>
      </trkpt>
      <trkpt lat="59.276705" lon="18.024119">
        <ele>29.5455</ele>
        <time>1970-01-01T01:00:00Z</time>
      </trkpt>
      <trkpt lat="59.276651" lon="18.023937">
        <ele>29.0909</ele>
        <time>1970-01-01T01:00:00Z</time>
      </trkpt>
      <trkpt lat="59.276593" lon="18.023752">
        <ele>28.7273</ele>
        <time>1970-01-01T01:00:00Z</time>
      </trkpt>
      <trkpt lat="59.276545" lon="18.023595">
        <ele>28.4545</ele>
        <time>1970-01-01T01:00:00Z</time>
      </trkpt>
      <trkpt lat="59.276504" lon="18.023436">
        <ele>28.2727</ele>
        <time>1970-01-01T01:00:00Z</time>
      </trkpt>
      <trkpt lat="59.276449" lon="18.023246">
        <ele>28.0909</ele>
        <time>1970-01-01T01:00:00Z</time>
      </trkpt>
      <trkpt lat="59.276407" lon="18.023089">
        <ele>28</ele>
        <time>1970-01-01T01:00:00Z</time>
      </trkpt>
      <trkpt lat="59.276365" lon="18.022933">
        <ele>28.0909</ele>
        <time>1970-01-01T01:00:00Z</time>
      </trkpt>
      <trkpt lat="59.276304" lon="18.022752">
        <ele>28.0909</ele>
        <time>1970-01-01T01:00:00Z</time>
      </trkpt>
      <trkpt lat="59.276262" lon="18.022595">
        <ele>28</ele>
        <time>1970-01-01T01:00:00Z</time>
      </trkpt>
      <trkpt lat="59.276215" lon="18.022439">
        <ele>28</ele>
        <time>1970-01-01T01:00:00Z</time>
      </trkpt>
      <trkpt lat="59.276159" lon="18.022261">
        <ele>28</ele>
        <time>1970-01-01T01:00:00Z</time>
      </trkpt>
      <trkpt lat="59.276101" lon="18.02208">
        <ele>28.0909</ele>
        <time>1970-01-01T01:00:00Z</time>
      </trkpt>
      <trkpt lat="59.276048" lon="18.021889">
        <ele>28.2727</ele>
        <time>1970-01-01T01:00:00Z</time>
      </trkpt>
      <trkpt lat="59.275989" lon="18.02172">
        <ele>28.4545</ele>
        <time>1970-01-01T01:00:00Z</time>
      </trkpt>
      <trkpt lat="59.275927" lon="18.021538">
        <ele>28.6364</ele>
        <time>1970-01-01T01:00:00Z</time>
      </trkpt>
      <trkpt lat="59.275883" lon="18.021337">
        <ele>28.9091</ele>
        <time>1970-01-01T01:00:00Z</time>
      </trkpt>
      <trkpt lat="59.275832" lon="18.021139">
        <ele>29.1818</ele>
        <time>1970-01-01T01:00:00Z</time>
      </trkpt>
      <trkpt lat="59.275791" lon="18.020947">
        <ele>29.3636</ele>
        <time>1970-01-01T01:00:00Z</time>
      </trkpt>
      <trkpt lat="59.275749" lon="18.020765">
        <ele>29.5455</ele>
        <time>1970-01-01T01:00:00Z</time>
      </trkpt>
      <trkpt lat="59.27571" lon="18.020566">
        <ele>29.8182</ele>
        <time>1970-01-01T01:00:00Z</time>
      </trkpt>
      <trkpt lat="59.275667" lon="18.020368">
        <ele>30</ele>
        <time>1970-01-01T01:00:00Z</time>
      </trkpt>
      <trkpt lat="59.27562" lon="18.020211">
        <ele>30.1818</ele>
        <time>1970-01-01T01:00:00Z</time>
      </trkpt>
      <trkpt lat="59.275576" lon="18.020049">
        <ele>30.2727</ele>
        <time>1970-01-01T01:00:00Z</time>
      </trkpt>
      <trkpt lat="59.27554" lon="18.019887">
        <ele>30.2727</ele>
        <time>1970-01-01T01:00:00Z</time>
      </trkpt>
      <trkpt lat="59.275502" lon="18.019721">
        <ele>30.2727</ele>
        <time>1970-01-01T01:00:00Z</time>
      </trkpt>
      <trkpt lat="59.27546" lon="18.019564">
        <ele>30.1818</ele>
        <time>1970-01-01T01:00:00Z</time>
      </trkpt>
      <trkpt lat="59.275413" lon="18.019371">
        <ele>30.0909</ele>
        <time>1970-01-01T01:00:00Z</time>
      </trkpt>
      <trkpt lat="59.27536" lon="18.019181">
        <ele>30</ele>
        <time>1970-01-01T01:00:00Z</time>
      </trkpt>
      <trkpt lat="59.275306" lon="18.01904">
        <ele>29.9091</ele>
        <time>1970-01-01T01:00:00Z</time>
      </trkpt>
      <trkpt lat="59.275267" lon="18.018873">
        <ele>29.8182</ele>
        <time>1970-01-01T01:00:00Z</time>
      </trkpt>
      <trkpt lat="59.275227" lon="18.018709">
        <ele>29.6364</ele>
        <time>1970-01-01T01:00:00Z</time>
      </trkpt>
      <trkpt lat="59.27519" lon="18.01854">
        <ele>29.3636</ele>
        <time>1970-01-01T01:00:00Z</time>
      </trkpt>
      <trkpt lat="59.27514" lon="18.018356">
        <ele>29.0909</ele>
        <time>1970-01-01T01:00:00Z</time>
      </trkpt>
      <trkpt lat="59.275092" lon="18.01818">
        <ele>28.9091</ele>
        <time>1970-01-01T01:00:00Z</time>
      </trkpt>
      <trkpt lat="59.275059" lon="18.018004">
        <ele>28.7273</ele>
        <time>1970-01-01T01:00:00Z</time>
      </trkpt>
      <trkpt lat="59.27504" lon="18.01779">
        <ele>28.5455</ele>
        <time>1970-01-01T01:00:00Z</time>
      </trkpt>
      <trkpt lat="59.275011" lon="18.01758">
        <ele>28.4545</ele>
        <time>1970-01-01T01:00:00Z</time>
      </trkpt>
      <trkpt lat="59.274973" lon="18.017382">
        <ele>28.3636</ele>
        <time>1970-01-01T01:00:00Z</time>
      </trkpt>
      <trkpt lat="59.274918" lon="18.0172">
        <ele>28.2727</ele>
        <time>1970-01-01T01:00:00Z</time>
      </trkpt>
      <trkpt lat="59.274844" lon="18.017055">
        <ele>28.1818</ele>
        <time>1970-01-01T01:00:00Z</time>
      </trkpt>
      <trkpt lat="59.274766" lon="18.016932">
        <ele>28</ele>
        <time>1970-01-01T01:00:00Z</time>
      </trkpt>
      <trkpt lat="59.274674" lon="18.016806">
        <ele>27.7273</ele>
        <time>1970-01-01T01:00:00Z</time>
      </trkpt>
      <trkpt lat="59.274595" lon="18.016719">
        <ele>27.5455</ele>
        <time>1970-01-01T01:00:00Z</time>
      </trkpt>
      <trkpt lat="59.274514" lon="18.016639">
        <ele>27.2727</ele>
        <time>1970-01-01T01:00:00Z</time>
      </trkpt>
      <trkpt lat="59.27443" lon="18.016548">
        <ele>27</ele>
        <time>1970-01-01T01:00:00Z</time>
      </trkpt>
      <trkpt lat="59.274349" lon="18.01646">
        <ele>26.7273</ele>
        <time>1970-01-01T01:00:00Z</time>
      </trkpt>
      <trkpt lat="59.274266" lon="18.01638">
        <ele>26.4545</ele>
        <time>1970-01-01T01:00:00Z</time>
      </trkpt>
      <trkpt lat="59.27418" lon="18.016312">
        <ele>26.2727</ele>
        <time>1970-01-01T01:00:00Z</time>
      </trkpt>
      <trkpt lat="59.274078" lon="18.016246">
        <ele>26.1818</ele>
        <time>1970-01-01T01:00:00Z</time>
      </trkpt>
      <trkpt lat="59.273976" lon="18.016193">
        <ele>26.0909</ele>
        <time>1970-01-01T01:00:00Z</time>
      </trkpt>
      <trkpt lat="59.273878" lon="18.016276">
        <ele>26.0909</ele>
        <time>1970-01-01T01:00:00Z</time>
      </trkpt>
      <trkpt lat="59.273801" lon="18.016421">
        <ele>26.1818</ele>
        <time>1970-01-01T01:00:00Z</time>
      </trkpt>
      <trkpt lat="59.273717" lon="18.016533">
        <ele>26.4545</ele>
        <time>1970-01-01T01:00:00Z</time>
      </trkpt>
      <trkpt lat="59.273646" lon="18.016646">
        <ele>26.7273</ele>
        <time>1970-01-01T01:00:00Z</time>
      </trkpt>
      <trkpt lat="59.273558" lon="18.016771">
        <ele>27.0909</ele>
        <time>1970-01-01T01:00:00Z</time>
      </trkpt>
      <trkpt lat="59.273471" lon="18.016902">
        <ele>27.4545</ele>
        <time>1970-01-01T01:00:00Z</time>
      </trkpt>
      <trkpt lat="59.273395" lon="18.017006">
        <ele>27.8182</ele>
        <time>1970-01-01T01:00:00Z</time>
      </trkpt>
      <trkpt lat="59.273318" lon="18.017116">
        <ele>28.2727</ele>
        <time>1970-01-01T01:00:00Z</time>
      </trkpt>
      <trkpt lat="59.273225" lon="18.017235">
        <ele>28.6364</ele>
        <time>1970-01-01T01:00:00Z</time>
      </trkpt>
      <trkpt lat="59.273137" lon="18.01736">
        <ele>29</ele>
        <time>1970-01-01T01:00:00Z</time>
      </trkpt>
      <trkpt lat="59.273067" lon="18.017515">
        <ele>29.3636</ele>
        <time>1970-01-01T01:00:00Z</time>
      </trkpt>
      <trkpt lat="59.272992" lon="18.017669">
        <ele>29.6364</ele>
        <time>1970-01-01T01:00:00Z</time>
      </trkpt>
      <trkpt lat="59.272997" lon="18.017884">
        <ele>29.9091</ele>
        <time>1970-01-01T01:00:00Z</time>
      </trkpt>
      <trkpt lat="59.273031" lon="18.01809">
        <ele>30.0909</ele>
        <time>1970-01-01T01:00:00Z</time>
      </trkpt>
      <trkpt lat="59.273048" lon="18.018298">
        <ele>30.2727</ele>
        <time>1970-01-01T01:00:00Z</time>
      </trkpt>
      <trkpt lat="59.273054" lon="18.018511">
        <ele>30.4545</ele>
        <time>1970-01-01T01:00:00Z</time>
      </trkpt>
      <trkpt lat="59.273096" lon="18.018685">
        <ele>30.6364</ele>
        <time>1970-01-01T01:00:00Z</time>
      </trkpt>
      <trkpt lat="59.273119" lon="18.0189">
        <ele>30.8182</ele>
        <time>1970-01-01T01:00:00Z</time>
      </trkpt>
      <trkpt lat="59.273131" lon="18.019098">
        <ele>30.8182</ele>
        <time>1970-01-01T01:00:00Z</time>
      </trkpt>
      <trkpt lat="59.273155" lon="18.019302">
        <ele>30.8182</ele>
        <time>1970-01-01T01:00:00Z</time>
      </trkpt>
      <trkpt lat="59.273192" lon="18.019508">
        <ele>30.7273</ele>
        <time>1970-01-01T01:00:00Z</time>
      </trkpt>
      <trkpt lat="59.273228" lon="18.019674">
        <ele>30.6364</ele>
        <time>1970-01-01T01:00:00Z</time>
      </trkpt>
      <trkpt lat="59.273268" lon="18.019833">
        <ele>30.6364</ele>
        <time>1970-01-01T01:00:00Z</time>
      </trkpt>
      <trkpt lat="59.273324" lon="18.020024">
        <ele>30.6364</ele>
        <time>1970-01-01T01:00:00Z</time>
      </trkpt>
      <trkpt lat="59.27337" lon="18.020185">
        <ele>30.6364</ele>
        <time>1970-01-01T01:00:00Z</time>
      </trkpt>
      <trkpt lat="59.273421" lon="18.020337">
        <ele>30.6364</ele>
        <time>1970-01-01T01:00:00Z</time>
      </trkpt>
      <trkpt lat="59.27347" lon="18.020485">
        <ele>30.7273</ele>
        <time>1970-01-01T01:00:00Z</time>
      </trkpt>
      <trkpt lat="59.273516" lon="18.020637">
        <ele>30.8182</ele>
        <time>1970-01-01T01:00:00Z</time>
      </trkpt>
      <trkpt lat="59.273565" lon="18.020791">
        <ele>31</ele>
        <time>1970-01-01T01:00:00Z</time>
      </trkpt>
      <trkpt lat="59.273621" lon="18.02097">
        <ele>31.2727</ele>
        <time>1970-01-01T01:00:00Z</time>
      </trkpt>
      <trkpt lat="59.273686" lon="18.02114">
        <ele>31.5455</ele>
        <time>1970-01-01T01:00:00Z</time>
      </trkpt>
      <trkpt lat="59.273753" lon="18.021314">
        <ele>31.9091</ele>
        <time>1970-01-01T01:00:00Z</time>
      </trkpt>
      <trkpt lat="59.273816" lon="18.021452">
        <ele>32.2727</ele>
        <time>1970-01-01T01:00:00Z</time>
      </trkpt>
      <trkpt lat="59.273877" lon="18.021587">
        <ele>32.5455</ele>
        <time>1970-01-01T01:00:00Z</time>
      </trkpt>
      <trkpt lat="59.27395" lon="18.021737">
        <ele>32.8182</ele>
        <time>1970-01-01T01:00:00Z</time>
      </trkpt>
      <trkpt lat="59.274003" lon="18.021915">
        <ele>33</ele>
        <time>1970-01-01T01:00:00Z</time>
      </trkpt>
      <trkpt lat="59.274044" lon="18.022074">
        <ele>33.1818</ele>
        <time>1970-01-01T01:00:00Z</time>
      </trkpt>
      <trkpt lat="59.274083" lon="18.022243">
        <ele>33.2727</ele>
        <time>1970-01-01T01:00:00Z</time>
      </trkpt>
      <trkpt lat="59.274117" lon="18.022408">
        <ele>33.3636</ele>
        <time>1970-01-01T01:00:00Z</time>
      </trkpt>
      <trkpt lat="59.274151" lon="18.022571">
        <ele>33.2727</ele>
        <time>1970-01-01T01:00:00Z</time>
      </trkpt>
      <trkpt lat="59.274184" lon="18.022771">
        <ele>33.1818</ele>
        <time>1970-01-01T01:00:00Z</time>
      </trkpt>
      <trkpt lat="59.27422" lon="18.022979">
        <ele>33.0909</ele>
        <time>1970-01-01T01:00:00Z</time>
      </trkpt>
      <trkpt lat="59.274251" lon="18.023145">
        <ele>32.9091</ele>
        <time>1970-01-01T01:00:00Z</time>
      </trkpt>
      <trkpt lat="59.274283" lon="18.023318">
        <ele>32.7273</ele>
        <time>1970-01-01T01:00:00Z</time>
      </trkpt>
      <trkpt lat="59.274309" lon="18.023493">
        <ele>32.5455</ele>
        <time>1970-01-01T01:00:00Z</time>
      </trkpt>
      <trkpt lat="59.274339" lon="18.023668">
        <ele>32.3636</ele>
        <time>1970-01-01T01:00:00Z</time>
      </trkpt>
      <trkpt lat="59.274375" lon="18.023843">
        <ele>32.2727</ele>
        <time>1970-01-01T01:00:00Z</time>
      </trkpt>
      <trkpt lat="59.274409" lon="18.024012">
        <ele>32.1818</ele>
        <time>1970-01-01T01:00:00Z</time>
      </trkpt>
      <trkpt lat="59.274452" lon="18.024187">
        <ele>32.0909</ele>
        <time>1970-01-01T01:00:00Z</time>
      </trkpt>
      <trkpt lat="59.274481" lon="18.024355">
        <ele>32</ele>
        <time>1970-01-01T01:00:00Z</time>
      </trkpt>
      <trkpt lat="59.274517" lon="18.024562">
        <ele>32.0909</ele>
        <time>1970-01-01T01:00:00Z</time>
      </trkpt>
      <trkpt lat="59.27455" lon="18.024728">
        <ele>32.1818</ele>
        <time>1970-01-01T01:00:00Z</time>
      </trkpt>
      <trkpt lat="59.274579" lon="18.024896">
        <ele>32.2727</ele>
        <time>1970-01-01T01:00:00Z</time>
      </trkpt>
      <trkpt lat="59.274611" lon="18.025067">
        <ele>32.4545</ele>
        <time>1970-01-01T01:00:00Z</time>
      </trkpt>
      <trkpt lat="59.274646" lon="18.025269">
        <ele>32.6364</ele>
        <time>1970-01-01T01:00:00Z</time>
      </trkpt>
      <trkpt lat="59.274682" lon="18.025475">
        <ele>32.9091</ele>
        <time>1970-01-01T01:00:00Z</time>
      </trkpt>
      <trkpt lat="59.274724" lon="18.025668">
        <ele>33.1818</ele>
        <time>1970-01-01T01:00:00Z</time>
      </trkpt>
      <trkpt lat="59.274767" lon="18.025837">
        <ele>33.5455</ele>
        <time>1970-01-01T01:00:00Z</time>
      </trkpt>
      <trkpt lat="59.2748" lon="18.026035">
        <ele>33.9091</ele>
        <time>1970-01-01T01:00:00Z</time>
      </trkpt>
      <trkpt lat="59.274835" lon="18.026224">
        <ele>34.2727</ele>
        <time>1970-01-01T01:00:00Z</time>
      </trkpt>
      <trkpt lat="59.274898" lon="18.026377">
        <ele>34.6364</ele>
        <time>1970-01-01T01:00:00Z</time>
      </trkpt>
      <trkpt lat="59.274971" lon="18.026542">
        <ele>34.8182</ele>
        <time>1970-01-01T01:00:00Z</time>
      </trkpt>
      <trkpt lat="59.275042" lon="18.026692">
        <ele>35</ele>
        <time>1970-01-01T01:00:00Z</time>
      </trkpt>
      <trkpt lat="59.275107" lon="18.026827">
        <ele>35.0909</ele>
        <time>1970-01-01T01:00:00Z</time>
      </trkpt>
      <trkpt lat="59.275173" lon="18.026948">
        <ele>35.0909</ele>
        <time>1970-01-01T01:00:00Z</time>
      </trkpt>
      <trkpt lat="59.27524" lon="18.02707">
        <ele>35</ele>
        <time>1970-01-01T01:00:00Z</time>
      </trkpt>
      <trkpt lat="59.275312" lon="18.027184">
        <ele>34.8182</ele>
        <time>1970-01-01T01:00:00Z</time>
      </trkpt>
      <trkpt lat="59.275392" lon="18.027313">
        <ele>34.7273</ele>
        <time>1970-01-01T01:00:00Z</time>
      </trkpt>
      <trkpt lat="59.275473" lon="18.02746">
        <ele>34.5455</ele>
        <time>1970-01-01T01:00:00Z</time>
      </trkpt>
      <trkpt lat="59.275543" lon="18.027585">
        <ele>34.3636</ele>
        <time>1970-01-01T01:00:00Z</time>
      </trkpt>
      <trkpt lat="59.275611" lon="18.027706">
        <ele>34.1818</ele>
        <time>1970-01-01T01:00:00Z</time>
      </trkpt>
      <trkpt lat="59.275683" lon="18.027828">
        <ele>34</ele>
        <time>1970-01-01T01:00:00Z</time>
      </trkpt>
      <trkpt lat="59.275757" lon="18.027951">
        <ele>33.8182</ele>
        <time>1970-01-01T01:00:00Z</time>
      </trkpt>
      <trkpt lat="59.27583" lon="18.028084">
        <ele>33.5455</ele>
        <time>1970-01-01T01:00:00Z</time>
      </trkpt>
      <trkpt lat="59.275895" lon="18.028217">
        <ele>33.3636</ele>
        <time>1970-01-01T01:00:00Z</time>
      </trkpt>
      <trkpt lat="59.275966" lon="18.028351">
        <ele>33.0909</ele>
        <time>1970-01-01T01:00:00Z</time>
      </trkpt>
      <trkpt lat="59.276039" lon="18.028484">
        <ele>32.9091</ele>
        <time>1970-01-01T01:00:00Z</time>
      </trkpt>
      <trkpt lat="59.276112" lon="18.028617">
        <ele>32.7273</ele>
        <time>1970-01-01T01:00:00Z</time>
      </trkpt>
      <trkpt lat="59.276187" lon="18.028739">
        <ele>32.4545</ele>
        <time>1970-01-01T01:00:00Z</time>
      </trkpt>
      <trkpt lat="59.276258" lon="18.028853">
        <ele>32.1818</ele>
        <time>1970-01-01T01:00:00Z</time>
      </trkpt>
      <trkpt lat="59.276329" lon="18.028961">
        <ele>31.9091</ele>
        <time>1970-01-01T01:00:00Z</time>
      </trkpt>
      <trkpt lat="59.276405" lon="18.029081">
        <ele>31.6364</ele>
        <time>1970-01-01T01:00:00Z</time>
      </trkpt>
      <trkpt lat="59.276477" lon="18.0292">
        <ele>31.3636</ele>
        <time>1970-01-01T01:00:00Z</time>
      </trkpt>
      <trkpt lat="59.276545" lon="18.029325">
        <ele>31.1818</ele>
        <time>1970-01-01T01:00:00Z</time>
      </trkpt>
      <trkpt lat="59.276613" lon="18.029448">
        <ele>31.0909</ele>
        <time>1970-01-01T01:00:00Z</time>
      </trkpt>
      <trkpt lat="59.276684" lon="18.029575">
        <ele>30.9091</ele>
        <time>1970-01-01T01:00:00Z</time>
      </trkpt>
      <trkpt lat="59.276749" lon="18.029698">
        <ele>30.8182</ele>
        <time>1970-01-01T01:00:00Z</time>
      </trkpt>
      <trkpt lat="59.27682" lon="18.029812">
        <ele>30.7273</ele>
        <time>1970-01-01T01:00:00Z</time>
      </trkpt>
      <trkpt lat="59.276896" lon="18.02994">
        <ele>30.6364</ele>
        <time>1970-01-01T01:00:00Z</time>
      </trkpt>
      <trkpt lat="59.276967" lon="18.030075">
        <ele>30.5455</ele>
        <time>1970-01-01T01:00:00Z</time>
      </trkpt>
      <trkpt lat="59.277035" lon="18.030204">
        <ele>30.4545</ele>
        <time>1970-01-01T01:00:00Z</time>
      </trkpt>
      <trkpt lat="59.277111" lon="18.030357">
        <ele>30.3636</ele>
        <time>1970-01-01T01:00:00Z</time>
      </trkpt>
      <trkpt lat="59.277182" lon="18.030482">
        <ele>30.2727</ele>
        <time>1970-01-01T01:00:00Z</time>
      </trkpt>
      <trkpt lat="59.277252" lon="18.030597">
        <ele>30.1818</ele>
        <time>1970-01-01T01:00:00Z</time>
      </trkpt>
      <trkpt lat="59.277323" lon="18.03071">
        <ele>30</ele>
        <time>1970-01-01T01:00:00Z</time>
      </trkpt>
      <trkpt lat="59.277396" lon="18.030817">
        <ele>29.8182</ele>
        <time>1970-01-01T01:00:00Z</time>
      </trkpt>
      <trkpt lat="59.27747" lon="18.030937">
        <ele>29.6364</ele>
        <time>1970-01-01T01:00:00Z</time>
      </trkpt>
      <trkpt lat="59.277545" lon="18.031063">
        <ele>29.5455</ele>
        <time>1970-01-01T01:00:00Z</time>
      </trkpt>
      <trkpt lat="59.277614" lon="18.031177">
        <ele>29.4545</ele>
        <time>1970-01-01T01:00:00Z</time>
      </trkpt>
      <trkpt lat="59.277698" lon="18.031312">
        <ele>29.3636</ele>
        <time>1970-01-01T01:00:00Z</time>
      </trkpt>
      <trkpt lat="59.277771" lon="18.031448">
        <ele>29.2727</ele>
        <time>1970-01-01T01:00:00Z</time>
      </trkpt>
      <trkpt lat="59.277841" lon="18.031577">
        <ele>29.1818</ele>
        <time>1970-01-01T01:00:00Z</time>
      </trkpt>
      <trkpt lat="59.277919" lon="18.031705">
        <ele>29.0909</ele>
        <time>1970-01-01T01:00:00Z</time>
      </trkpt>
      <trkpt lat="59.277988" lon="18.031831">
        <ele>29</ele>
        <time>1970-01-01T01:00:00Z</time>
      </trkpt>
      <trkpt lat="59.278045" lon="18.031968">
        <ele>29</ele>
        <time>1970-01-01T01:00:00Z</time>
      </trkpt>
      <trkpt lat="59.278094" lon="18.032127">
        <ele>29.0909</ele>
        <time>1970-01-01T01:00:00Z</time>
      </trkpt>
      <trkpt lat="59.278152" lon="18.032272">
        <ele>29.0909</ele>
        <time>1970-01-01T01:00:00Z</time>
      </trkpt>
      <trkpt lat="59.27821" lon="18.032422">
        <ele>29.1818</ele>
        <time>1970-01-01T01:00:00Z</time>
      </trkpt>
      <trkpt lat="59.27827" lon="18.032562">
        <ele>29.1818</ele>
        <time>1970-01-01T01:00:00Z</time>
      </trkpt>
      <trkpt lat="59.278336" lon="18.032701">
        <ele>29.2727</ele>
        <time>1970-01-01T01:00:00Z</time>
      </trkpt>
      <trkpt lat="59.278409" lon="18.032832">
        <ele>29.2727</ele>
        <time>1970-01-01T01:00:00Z</time>
      </trkpt>
      <trkpt lat="59.278479" lon="18.032957">
        <ele>29.2727</ele>
        <time>1970-01-01T01:00:00Z</time>
      </trkpt>
      <trkpt lat="59.278551" lon="18.033087">
        <ele>29.2727</ele>
        <time>1970-01-01T01:00:00Z</time>
      </trkpt>
      <trkpt lat="59.278628" lon="18.033202">
        <ele>29.2727</ele>
        <time>1970-01-01T01:00:00Z</time>
      </trkpt>
      <trkpt lat="59.278701" lon="18.03332">
        <ele>29.3636</ele>
        <time>1970-01-01T01:00:00Z</time>
      </trkpt>
      <trkpt lat="59.278772" lon="18.033442">
        <ele>29.3636</ele>
        <time>1970-01-01T01:00:00Z</time>
      </trkpt>
      <trkpt lat="59.278843" lon="18.03357">
        <ele>29.3636</ele>
        <time>1970-01-01T01:00:00Z</time>
      </trkpt>
      <trkpt lat="59.27891" lon="18.033695">
        <ele>29.5455</ele>
        <time>1970-01-01T01:00:00Z</time>
      </trkpt>
      <trkpt lat="59.278982" lon="18.03381">
        <ele>29.8182</ele>
        <time>1970-01-01T01:00:00Z</time>
      </trkpt>
      <trkpt lat="59.279049" lon="18.033929">
        <ele>30.0909</ele>
        <time>1970-01-01T01:00:00Z</time>
      </trkpt>
      <trkpt lat="59.279113" lon="18.034054">
        <ele>30.2727</ele>
        <time>1970-01-01T01:00:00Z</time>
      </trkpt>
      <trkpt lat="59.279178" lon="18.034196">
        <ele>30.4545</ele>
        <time>1970-01-01T01:00:00Z</time>
      </trkpt>
      <trkpt lat="59.279242" lon="18.034343">
        <ele>30.5455</ele>
        <time>1970-01-01T01:00:00Z</time>
      </trkpt>
      <trkpt lat="59.279307" lon="18.03449">
        <ele>30.5455</ele>
        <time>1970-01-01T01:00:00Z</time>
      </trkpt>
      <trkpt lat="59.27937" lon="18.034643">
        <ele>30.5455</ele>
        <time>1970-01-01T01:00:00Z</time>
      </trkpt>
      <trkpt lat="59.279429" lon="18.034792">
        <ele>30.4545</ele>
        <time>1970-01-01T01:00:00Z</time>
      </trkpt>
      <trkpt lat="59.279495" lon="18.03494">
        <ele>30.2727</ele>
        <time>1970-01-01T01:00:00Z</time>
      </trkpt>
      <trkpt lat="59.279574" lon="18.035066">
        <ele>30.0909</ele>
        <time>1970-01-01T01:00:00Z</time>
      </trkpt>
      <trkpt lat="59.279655" lon="18.035172">
        <ele>29.8182</ele>
        <time>1970-01-01T01:00:00Z</time>
      </trkpt>
      <trkpt lat="59.279739" lon="18.03531">
        <ele>29.4545</ele>
        <time>1970-01-01T01:00:00Z</time>
      </trkpt>
      <trkpt lat="59.279809" lon="18.035473">
        <ele>29.1818</ele>
        <time>1970-01-01T01:00:00Z</time>
      </trkpt>
      <trkpt lat="59.279867" lon="18.035642">
        <ele>28.9091</ele>
        <time>1970-01-01T01:00:00Z</time>
      </trkpt>
      <trkpt lat="59.279944" lon="18.035791">
        <ele>28.7273</ele>
        <time>1970-01-01T01:00:00Z</time>
      </trkpt>
      <trkpt lat="59.280049" lon="18.035731">
        <ele>28.6364</ele>
        <time>1970-01-01T01:00:00Z</time>
      </trkpt>
      <trkpt lat="59.280131" lon="18.035595">
        <ele>28.6364</ele>
        <time>1970-01-01T01:00:00Z</time>
      </trkpt>
      <trkpt lat="59.280213" lon="18.03546">
        <ele>28.6</ele>
        <time>1970-01-01T01:00:00Z</time>
      </trkpt>
      <trkpt lat="59.280222" lon="18.035264">
        <ele>28.5556</ele>
        <time>1970-01-01T01:00:00Z</time>
      </trkpt>
      <trkpt lat="59.280157" lon="18.03509">
        <ele>28.625</ele>
        <time>1970-01-01T01:00:00Z</time>
      </trkpt>
      <trkpt lat="59.280097" lon="18.034907">
        <ele>28.7143</ele>
        <time>1970-01-01T01:00:00Z</time>
      </trkpt>
      <trkpt lat="59.280071" lon="18.034741">
        <ele>28.8333</ele>
        <time>1970-01-01T01:00:00Z</time>
      </trkpt>
    </trkseg>
  </trk>
</gpx>